Home > Time Zones > World Clock > Weather > India > Thane > Past weeks

Flag for India Weather past 2 weeks in Thane, Maharashtra, India

Now
81 °F

Partly cloudy.


Feels Like: 87 °F
Forecast: 81 / 85 °F
Wind: 5 mph from Southeast

Location: Bombay / Santacruz

Current Time: Jul 14, 2014 at 6:04:30 AM

Latest Report: Jul 14, 2014 at 4:40 AM


Visibility: 1 mi

Pressure: 29.56 "Hg

Humidity: 89%

Dew point: 77 °F

Location of ThaneLocation

Historic Weather in Thane — Graph

°F

Thane temperature yesterday

Maximum temperature yesterday: 84 °F (at 4:40 PM)
Minimum temperature yesterday: 77 °F (at 12:40 AM)
Average temperature yesterday: 80 °F

Past Weeks' High & Low Weather Summary

 TemperatureHumidityPressure
High91 °F (Jul 1, 2:40 PM)100% (Jul 7, 4:40 PM)29.89 "Hg (Jul 7, 4:40 PM)
Low75 °F (Jul 11, 10:40 PM)63% (Jun 30, 11:40 AM)29.56 "Hg (Jul 14, 4:40 AM)
Average82 °F85%29.71 "Hg
* Reported Jun 29 4:40 AM — Jul 14 4:40 AM, Thane, Weather by CustomWeather, © 2014

Note: Actual official high and low records may vary slightly from our data, if they occured in-between our weather recording intervals... More about our weather records

Advertising

Thane weather history for previous 24 hours

 ConditionsComfort  
Time TempWeatherWind HumidityBarometerVisibility
4:40 AM
Jul 14
81 °FPartly cloudy.5 mph89%29.56 "Hg1 mi
3:40 AM81 °FPartly cloudy.No wind89%29.59 "Hg1 mi
2:40 AM79 °FPartly cloudy.3 mph94%29.59 "Hg1 mi
1:40 AM79 °FPartly cloudy.3 mph94%29.62 "Hg1 mi
12:40 AM79 °FPartly cloudy.6 mph94%29.62 "Hg1 mi
11:40 PM
Jul 13
79 °FLight rain. Mostly cloudy.5 mph94%29.65 "Hg1 mi
10:40 PM79 °FMostly cloudy.6 mph94%29.65 "Hg1 mi
9:40 PM79 °FThunderstorms. Mostly cloudy.5 mph94%29.65 "Hg1 mi
7:40 PM82 °FBroken clouds.5 mph94%29.62 "Hg1 mi
6:40 PM82 °FBroken clouds.3 mph94%29.59 "Hg1 mi
4:40 PM84 °FBroken clouds.5 mph94%29.59 "Hg1 mi
3:40 PM82 °FBroken clouds.No wind94%29.59 "Hg1 mi
12:40 PM81 °FLight rain. More clouds than sun.3 mph89%29.65 "Hg1 mi
11:40 AM81 °FLight rain. More clouds than sun.6 mph89%29.65 "Hg1 mi
10:40 AM81 °FScattered showers. Broken clouds.5 mph89%29.65 "Hg1 mi
8:40 AM79 °FLight rain. More clouds than sun.5 mph94%29.62 "Hg1 mi
Weather by CustomWeather, © 2014

See weather overviewHow to use our weather pages